Flag for Germany Weather past 2 weeks in Frankfurt an der Oder, Brandenburg, Germany

Now
74 °F

Passing clouds.


Feels Like: 77 °F
Forecast: 59 / 88 °F
Wind: 5 mph from Northwest

Location: Lindenberg

Current Time: Jul 6, 2015 at 8:33:20 PM

Latest Report: Jul 6, 2015 at 8:00 PM


Visibility: 25 mi

Pressure: 30.07 "Hg

Humidity: 43%

Dew point: 50 °F

Location of Frankfurt an der OderLocation

Historic Weather in Frankfurt an der Oder — Graph

°F

Frankfurt an der Oder temperature yesterday

Maximum temperature yesterday: 95 °F (at 4:00 PM)
Minimum temperature yesterday: 75 °F (at 8:00 AM)
Average temperature yesterday: 85 °F

Past Weeks' High & Low Weather Summary

 TemperatureHumidityPressure
High96 °F (Jul 4, 4:00 PM)98% (Jun 27, 10:00 PM)30.28 "Hg (Jun 27, 10:00 PM)
Low49 °F (Jun 24, 3:00 AM)24% (Jul 4, 6:00 PM)29.62 "Hg (Jun 23, 2:00 AM)
Average67 °F65%30.07 "Hg
* Reported Jun 21 8:00 PM — Jul 6 7:00 PM, Frankfurt an der Oder, Weather by CustomWeather, © 2015

Note: Actual official high and low records may vary slightly from our data, if they occured in-between our weather recording intervals... More about our weather records

Advertising

Frankfurt an der Oder weather history for previous 24 hours

 ConditionsComfort  
Time TempWeatherWind HumidityBarometerVisibility
7:00 PM
Mon, Jul 6
75 °FPassing clouds.6 mph40%30.07 "Hg25 mi
6:00 PM76 °FScattered clouds.5 mph38%30.08 "Hg28 mi
4:00 PM76 °FScattered clouds.6 mph44%30.09 "Hg22 mi
3:00 PM76 °FPartly sunny.6 mph43%30.09 "Hg25 mi
2:00 PM74 °FPartly sunny.6 mph48%30.09 "Hg25 mi
1:00 PM72 °FPartly sunny.6 mph51%30.10 "Hg25 mi
12:00 PM71 °FScattered clouds.7 mph60%30.09 "Hg25 mi
10:00 AM68 °FPartly sunny.7 mph79%30.06 "Hg19 mi
9:00 AM65 °FOvercast.7 mph86%30.04 "Hg16 mi
8:00 AM67 °FLow clouds.6 mph92%30.01 "Hg5 mi
7:00 AM68 °FLow clouds.7 mph95%29.97 "Hg2 mi
6:00 AM68 °FLight rain. Overcast.2 mph95%29.90 "Hg5 mi
4:00 AM69 °FLight rain. Overcast.5 mph94%29.95 "Hg7 mi
3:00 AM69 °FLight rain. Overcast.3 mph96%29.93 "Hg7 mi
2:00 AM70 °FThundershowers. Overcast.3 mph90%29.97 "Hg6 mi
1:00 AM72 °FThundershowers. Overcast.5 mph79%29.91 "Hg9 mi
12:00 AM79 °FThunderstorms. Overcast.8 mph56%29.92 "Hg9 mi
10:00 PM
Sun, Jul 5
87 °FOvercast.5 mph42%29.85 "Hg9 mi
9:00 PM89 °FOvercast.3 mph39%29.86 "Hg12 mi
8:00 PM91 °FPartly sunny.3 mph35%29.87 "Hg9 mi
Weather by CustomWeather, © 2015

See weather overviewHow to use our weather pages